Regional Weather Roundup
Issued by NWS

Home | Current Version | Previous Version | Text Only | Print | Product List | Glossary Off
Versions: 1 2 3 4 5 6 7 8 9 10 11 12 13 14 15 16 17 18 19 20 21 22 23 24 25 26 27 28 29 30 31 32 33 34 35 36 37 38 39 40 41 42 43 44 45 46 47 48 49 50

000
ASUS45 KPSR 170610
RWRAZ

ARIZONA REGIONAL HOURLY WEATHER ROUNDUP
NATIONAL WEATHER SERVICE PHOENIX AZ
1100 PM MST WED APR 16 2014

NOTE: FAIR INDICATES FEW OR NO CLOUDS BELOW 12,000 FEET WITH NO
SIGNIFICANT WEATHER AND/OR OBSTRUCTIONS TO VISIBILITY.

AZZ001>003-036-170700-
NORTHWEST ARIZONA

CITY           SKY/WX    TMP DP  RH WIND       PRES   REMARKS
BULLHEAD CITY  CLEAR     75  19  12 CALM      29.71S
KINGMAN        CLEAR     59  13  16 S8        29.87S
6HR MIN TEMP:  58; 6HR MAX TEMP:  83;

$$

AZZ004>008-015-016-018-170700-
NORTH CENTRAL ARIZONA

CITY           SKY/WX    TMP DP  RH WIND       PRES   REMARKS
GRAND CANYON   CLEAR     37  16  42 NE6       30.06R WCI  32
6HR MIN TEMP:  35; 6HR MAX TEMP:  65;

WILLIAMS       CLEAR     39  14  35 CALM      30.12S
PRESCOTT       CLEAR     58  16  19 S3        29.97R
6HR MIN TEMP:  54; 6HR MAX TEMP:  75;

FLAGSTAFF      CLEAR     37  15  40 CALM      30.07R
6HR MIN TEMP:  37; 6HR MAX TEMP:  65;

$$

AZZ009>014-017-170700-
NORTHEAST ARIZONA

CITY           SKY/WX    TMP DP  RH WIND       PRES   REMARKS
WINSLOW        CLEAR     50  21  32 W12       29.98R
6HR MIN TEMP:  49; 6HR MAX TEMP:  75;

SAINT JOHNS    PTCLDY    51  15  23 CALM      29.99R
6HR MIN TEMP:  48; 6HR MAX TEMP:  71;

WINDOW ROCK    CLEAR     39  19  44 CALM      30.04R
6HR MIN TEMP:  38; 6HR MAX TEMP:  59;

$$

AZZ023-170700-
GREATER PHOENIX AREA

CITY           SKY/WX    TMP DP  RH WIND       PRES   REMARKS
PHOENIX        CLEAR     81  22  11 W8        29.75R
6HR MIN TEMP:  78; 6HR MAX TEMP:  91;

BUCKEYE          N/A     66  25  20 NE3       29.77R
LUKE AFB       NOT AVBL
6HR MIN TEMP:  74; 6HR MAX TEMP:  91;

DEER VALLEY    CLEAR     73  22  14 N5        29.77R
6HR MIN TEMP:  71; 6HR MAX TEMP:  88;

SCOTTSDALE     CLEAR     75  27  17 CALM      29.79R
6HR MIN TEMP:  74; 6HR MAX TEMP:  89;

MESA-GATEWAY   CLEAR     66  14  13 SE5       29.79R
$$

AZZ027-028-170700-
SOUTHWEST MARICOPA COUNTY AND PINAL COUNTY

CITY           SKY/WX    TMP DP  RH WIND       PRES   REMARKS
CASA GRANDE    CLEAR     70  19  14 CALM      29.80R
6HR MIN TEMP:  68; 6HR MAX TEMP:  90;

GILA BEND      CLEAR     75  16  10 S6        29.78R
$$

AZZ503-504-507>509-170700-
SOUTHEAST ARIZONA

CITY           SKY/WX    TMP DP  RH WIND       PRES   REMARKS
TUCSON         CLEAR     72  11   9 SW7       29.89R
6HR MIN TEMP:  69; 6HR MAX TEMP:  87;

DAVIS-MONTHAN  CLEAR     68  10  10 S8        29.88R
6HR MIN TEMP:  68; 6HR MAX TEMP:  85;

NOGALES        CLEAR     63  17  17 CALM      29.97R
6HR MIN TEMP:  62; 6HR MAX TEMP:  81;

SIERRA VISTA   CLEAR     64  16  15 SW9G20    29.97R
DOUGLAS        CLEAR     64  10  12 CALM      29.96R
6HR MIN TEMP:  58; 6HR MAX TEMP:  82;

SAFFORD        CLEAR     63   2   8 N9        29.85R
6HR MIN TEMP:  61; 6HR MAX TEMP:  85;

$$

AZZ020-021-025-026-031-170700-
SOUTHWEST ARIZONA

CITY           SKY/WX    TMP DP  RH WIND       PRES   REMARKS
YUMA           NOT AVBL
$$

CAZ031-033-041-043-047-048-061-170700-
SOUTHERN CALIFORNIA

CITY           SKY/WX    TMP DP  RH WIND       PRES   REMARKS
DOWNTOWN L.A.  CLEAR     59  53  80 CALM      29.86R
6HR MIN TEMP:  59; 6HR MAX TEMP:  67;

L.A. AIRPORT   CLEAR     59  53  80 CALM      29.86S
6HR MIN TEMP:  59; 6HR MAX TEMP:  63;

SAN DIEGO      MOCLDY    62  53  72 S8        29.90R
6HR MIN TEMP:  61; 6HR MAX TEMP:  64;

BURBANK        CLEAR     60  52  74 E6        29.86R
6HR MIN TEMP:  60; 6HR MAX TEMP:  71;

ONTARIO        CLEAR     60  51  72 W7        29.86R
6HR MIN TEMP:  60; 6HR MAX TEMP:  76;

RIVERSIDE      CLEAR     61  51  70 CALM      29.86S
6HR MIN TEMP:  60; 6HR MAX TEMP:  77;

PALM SPRINGS   CLEAR     78  41  26 NW6       29.75R
6HR MIN TEMP:  78; 6HR MAX TEMP:  95;

EL CENTRO NAS  CLEAR     77  39  25 SW5       29.70S
6HR MIN TEMP:  73; 6HR MAX TEMP:  94;

IMPERIAL       CLEAR     76  34  21 CALM      29.70R
6HR MIN TEMP:  74; 6HR MAX TEMP:  94;

BLYTHE         CLEAR     81  22  11 S18       29.72R
6HR MIN TEMP:  81; 6HR MAX TEMP:  94;

NEEDLES        CLEAR     83  20   9 CALM      29.71R
6HR MIN TEMP:  81; 6HR MAX TEMP:  96;

$$

NVZ020-UTZ003-170700-
SOUTHERN NEVADA-UTAH

CITY           SKY/WX    TMP DP  RH WIND       PRES   REMARKS
LAS VEGAS      PTCLDY    76  20  12 S5        29.75R
6HR MIN TEMP:  75; 6HR MAX TEMP:  88;

SALT LAKE CITY PTCLDY    42  18  37 SW7       30.02S
6HR MIN TEMP:  42; 6HR MAX TEMP:  58;

$$

NMZ009-TXZ055-170700-
NEW MEXICO-WEST TEXAS

CITY           SKY/WX    TMP DP  RH WIND       PRES   REMARKS
ALBUQUERQUE    MOCLDY    59  23  25 N6        29.96R
6HR MIN TEMP:  58; 6HR MAX TEMP:  71;

EL PASO        CLOUDY    73   1   6 W14       29.85R
6HR MIN TEMP:  72; 6HR MAX TEMP:  83;

$$


........................KEY........................
SKY/WX - SKY CONDITION/WEATHER
TMP    - TEMPERATURE IN FAHRENHEIT
DP     - DEW POINT IN FAHRENHEIT
RH     - RELATIVE HUMIDITY IN PERCENT
WIND   - DIRECTION AND SPEED IN MILES PER HOUR (MPH)
VRB    - VARIABLE WIND DIRECTION
PRES   - MEAN SEA LEVEL PRESSURE IN INCHES OF MERCURY
         F - FALLING PRESSURE   R - RISING PRESSURE
         S - STEADY PRESSURE
VSB    - VISIBILITY IN MILES
HX     - HEAT INDEX IN FAHRENHEIT
WCI    - WIND CHILL INDEX IN FAHRENHEIT
TC     - TEMPERATURE IN CELSIUS WHICH IS ALSO KNOWN AS
         TEMPERATURE IN CENTIGRADE
AFB    - AIR FORCE BASE
         LUKE AFB IS LUKE AIR FORCE BASE
         DAVIS-MONTHAN IS DAVIS-MONTHAN AIR FORCE BASE
NAS    - NAVAL AIR STATION
         EL CENTRO NAS IS EL CENTRO NAVAL AIR STATION
N/A    - NOT AVAILABLE



USA.gov is the U.S. government's official web portal to all federal, state and local government web resources and services.